[[{"header":{"parameterUnit":"m.s-1","parameterCategory":1,"la1":30.2991,"la2":30.254,"lo1":-89.0895,"lo2":-89.0444,"dy":0.0017,"dx":0.0017,"nx":28,"ny":28,"refTime":"2024-09-25T09:00:00:Z","depth":0,"parameterNumber":2,"parameterNumberName":"U-component_of_WINDS"},"data":[0,0,0,0,0,0,0,0,0,0,0,0,0,0,0,0,0,0,0,0,0,0,0,0,0,0,0,0,0,0,0,0,0,0,0,0,0,0,0,0,0,0,0,0,0,0,0,0,0,0,0,0,0,0,0,0,0,0,-1.3898,-1.3898,0,-1.3932,-1.3932,-1.3932,-1.389,-1.3888,-1.3887,-1.3885,-1.3921,-1.3923,-1.3926,0,0,0,0,0,0,0,0,0,0,0,0,0,-1.3796,-1.3798,-1.3898,-1.3898,-1.3898,-1.3932,-1.3932,-1.3932,-1.389,-1.3888,-1.3887,-1.3885,-1.392,-1.3923,-1.3926,0,0,0,0,0,0,0,0,0,0,0,0,0,-1.3836,-1.3799,-1.3897,-1.3881,-1.388,-1.3931,-1.3932,-1.3933,-1.3891,-1.3888,-1.3886,-1.3884,-1.3919,-1.3923,-1.3926,-1.3995,0,0,-1.3937,-1.3939,0,0,0,0,0,0,0,0,-1.3834,-1.384,-1.3883,-1.3883,-1.3881,-1.3904,-1.3909,-1.3954,-1.3891,-1.3887,-1.3885,-1.3883,-1.3917,-1.3921,-1.3933,-1.3997,-1.3998,-1.3938,-1.394,-1.3941,-1.3942,0,0,0,0,0,0,0,-1.3831,-1.3838,-1.3911,-1.3884,-1.3883,-1.3872,-1.3876,-1.3917,-1.3915,-1.3887,-1.3884,-1.3889,-1.3916,-1.3929,-1.3933,-1.3999,-1.3938,-1.3941,-1.3943,-1.3944,-1.4121,-1.4124,0,0,0,0,0,0,-1.383,-1.3836,-1.391,-1.3912,-1.3851,-1.3876,-1.388,-1.3899,-1.3914,-1.3914,-1.3891,-1.3886,-1.3924,-1.3929,-1.3934,-1.4016,-1.3941,-1.3945,-1.3947,-1.4119,-1.4122,-1.4125,0,0,0,0,0,0,-1.3828,-1.3837,-1.3909,-1.3873,-1.3882,-1.388,-1.3903,-1.3901,-1.3914,-1.3917,-1.3916,-1.3904,-1.3923,-1.3929,-1.398,-1.4017,-1.3946,-1.395,-1.4116,-1.412,-1.4123,-1.418,0,0,0,0,0,0,-1.3826,-1.3837,-1.3863,-1.3874,-1.3884,-1.3954,-1.3905,-1.3903,-1.392,-1.3915,-1.3929,-1.393,-1.3921,-1.3975,-1.3984,-1.402,-1.3952,-1.4113,-1.4117,-1.4122,-1.4175,-1.4186,-1.4194,0,0,0,0,0,-1.3822,-1.3878,-1.3865,-1.3874,-1.3917,-1.3957,-1.3962,-1.3951,-1.3923,-1.395,-1.3951,-1.3929,-1.4011,-1.3981,-1.399,-1.4028,-1.411,-1.4116,-1.4122,-1.4171,-1.4184,-1.4194,0,0,0,0,0,0,-1.3872,-1.3879,-1.3865,-1.3926,-1.3941,-1.3949,-1.3983,-1.3965,-1.3988,-1.3983,-1.3968,-1.3972,-1.4027,-1.4032,-1.3998,-1.4095,-1.4056,-1.4064,-1.409,-1.4102,-1.4112,-1.411,-1.3955,0,0,0,0,0,-1.389,-1.3922,-1.3926,-1.398,-1.3988,-1.3984,-1.4001,-1.3991,-1.4006,-1.4013,-1.4018,-1.4034,-1.4063,-1.4083,-1.411,-1.4175,-1.4178,-1.4206,-1.4216,-1.4223,-1.4231,-1.4266,-1.4279,-1.4143,-1.4143,-1.4143,0,0,-1.3928,-1.3936,-1.3957,-1.399,-1.4001,-1.4034,-1.399,-1.4027,-1.4052,-1.4018,-1.4067,-1.4072,-1.4088,-1.4147,-1.4173,-1.4153,-1.4268,-1.4231,-1.4237,-1.424,-1.4273,-1.4286,-1.4297,-1.4147,-1.4146,-1.4146,0,0,-1.4014,-1.4023,-1.4068,-1.408,-1.4096,-1.4092,-1.4103,-1.4114,-1.4116,-1.4165,-1.414,-1.4169,-1.422,-1.4232,-1.4245,-1.4335,-1.4316,-1.4344,-1.4395,-1.4429,-1.444,-1.445,-1.4482,-1.4494,-1.4351,-1.4351,-1.4351,0,-1.4059,-1.4108,-1.4094,-1.4133,-1.4149,-1.4119,-1.4165,-1.4177,-1.4201,-1.4213,-1.419,-1.4252,-1.4261,-1.4323,-1.4344,-1.4356,-1.4368,-1.4343,-1.444,-1.4449,-1.4458,-1.4488,-1.4501,-1.4355,-1.4354,-1.4354,-1.4354,0,-1.4163,-1.4198,-1.4232,-1.4257,-1.4276,-1.4318,-1.431,-1.4331,-1.4319,-1.4318,-1.4368,-1.4377,-1.4406,-1.4419,-1.4408,-1.4479,-1.4466,-1.4442,-1.4402,-1.4474,-1.4503,-1.4515,-1.436,-1.4358,-1.4357,-1.4357,0,0,-1.4283,-1.4298,-1.4311,-1.4322,-1.4337,-1.4363,-1.4404,-1.4431,-1.445,-1.4467,-1.4501,-1.4544,-1.4521,-1.4536,-1.4526,-1.4556,-1.4627,-1.4527,-1.4528,-1.4546,-1.4706,-1.4725,-1.4739,-1.4613,-1.4615,-1.4617,-1.4704,0,-1.437,-1.4441,-1.4429,-1.4498,-1.4529,-1.4501,-1.4536,-1.4549,-1.4549,-1.4576,-1.4575,-1.4606,-1.4574,-1.4582,-1.4611,-1.4612,-1.4659,-1.4605,-1.4645,-1.4647,-1.4643,-1.4754,-1.4774,-1.4857,-1.4716,-1.4717,-1.4719,0,-1.4482,-1.4503,-1.4574,-1.4584,-1.4597,-1.4629,-1.4653,-1.4679,-1.4693,-1.469,-1.4706,-1.469,-1.4731,-1.4689,-1.4745,-1.4709,-1.4724,-1.4727,-1.473,-1.4734,-1.4688,-1.4762,-1.4883,-1.4895,-1.4736,-1.4735,-1.4734,0,-1.4563,-1.4609,-1.4658,-1.4668,-1.468,-1.4703,-1.4709,-1.4721,-1.4738,-1.4758,-1.4769,-1.4794,-1.4809,-1.4828,-1.4819,-1.479,-1.4877,-1.4834,-1.4876,-1.4877,-1.4897,-1.4897,-1.5023,-1.4905,-1.4905,-1.4905,-1.4905,0,-1.4662,-1.4708,-1.4695,-1.4725,-1.4775,-1.476,-1.481,-1.4812,-1.4823,-1.4853,-1.4829,-1.4858,-1.4844,-1.4872,-1.4864,-1.4912,-1.4918,-1.4918,-1.4916,-1.4921,-1.4921,-1.4932,-1.4926,-1.4908,-1.4907,-1.4907,-1.4906,0,-1.4763,-1.4756,-1.4807,-1.4814,-1.4817,-1.4853,-1.4859,-1.4888,-1.4885,-1.4923,-1.4931,-1.4927,-1.4959,-1.4951,-1.4985,-1.4981,-1.5041,-1.5031,-1.5036,-1.5034,-1.5077,-1.5074,-1.5216,-1.5234,-1.5104,-1.5105,-1.5106,0,-1.4827,-1.4861,-1.4871,-1.489,-1.4898,-1.4928,-1.4945,-1.4931,-1.495,-1.4967,-1.4994,-1.5022,-1.5045,-1.5097,-1.5097,-1.5123,-1.5114,-1.5162,-1.5118,-1.5122,-1.5116,-1.5114,-1.5118,-1.5171,-1.5173,-1.5174,-1.5175,0,-1.4942,-1.4937,-1.4962,-1.4987,-1.5008,-1.5026,-1.5042,-1.5059,-1.5046,-1.5068,-1.51,-1.5117,-1.5152,-1.5181,-1.5205,-1.5211,-1.5191,-1.5189,-1.52,-1.5206,-1.5208,-1.5209,-1.5061,-1.5186,-1.5185,-1.5184,-1.5183,-1.5183,-1.5027,-1.5056,-1.5068,-1.5097,-1.5107,-1.5123,-1.515,-1.515,-1.5176,-1.5203,-1.5193,-1.5229,-1.5241,-1.5271,-1.528,-1.5308,-1.529,-1.5306,-1.531,-1.5315,-1.5321,-1.5203,-1.5312,-1.5312,-1.5311,-1.5311,-1.5311,0,-1.5142,-1.5148,-1.5175,-1.5198,-1.5221,-1.5199,-1.5215,-1.5236,-1.5268,-1.5281,-1.5304,-1.534,-1.5368,-1.5369,-1.5396,-1.5418,-1.5409,-1.5425,-1.5424,-1.5426,-1.5335,-1.5323,-1.5432,-1.5431,-1.5431,-1.5431,-1.5431,-1.5431,-1.5205,-1.5253,-1.5249,-1.5301,-1.5307,-1.5342,-1.5353,-1.5367,-1.5377,-1.5419,-1.5442,-1.5442,-1.5451,-1.5477,-1.5502,-1.5502,-1.5513,-1.5532,-1.5529,-1.5444,-1.5432,-1.5421,-1.541,-1.5535,-1.5535,-1.5618,-1.5618,-1.5619]},{"header":{"parameterUnit":"m.s-1","parameterCategory":1,"la1":30.2991,"la2":30.254,"lo1":-89.0895,"lo2":-89.0444,"dy":0.0017,"dx":0.0017,"nx":28,"ny":28,"refTime":"2024-09-25T09:00:00:Z","depth":0,"parameterNumber":3,"parameterNumberName":"V-component_of_WINDS"},"data":[0,0,0,0,0,0,0,0,0,0,0,0,0,0,0,0,0,0,0,0,0,0,0,0,0,0,0,0,0,0,0,0,0,0,0,0,0,0,0,0,0,0,0,0,0,0,0,0,0,0,0,0,0,0,0,0,0,0,-7.0761,-7.0762,0,-7.0809,-7.081,-7.081,-7.0708,-7.0705,-7.0702,-7.0699,-7.0745,-7.0749,-7.0753,0,0,0,0,0,0,0,0,0,0,0,0,0,-7.0577,-7.0581,-7.0761,-7.0762,-7.0763,-7.0809,-7.081,-7.0811,-7.0709,-7.0705,-7.0701,-7.0697,-7.0743,-7.0748,-7.0753,0,0,0,0,0,0,0,0,0,0,0,0,0,-7.0644,-7.0582,-7.0761,-7.0718,-7.0714,-7.0809,-7.081,-7.0811,-7.071,-7.0705,-7.07,-7.0695,-7.0742,-7.0748,-7.0754,-7.0893,0,0,-7.0774,-7.0777,0,0,0,0,0,0,0,0,-7.064,-7.0651,-7.0723,-7.0721,-7.0717,-7.0748,-7.0762,-7.0838,-7.0711,-7.0711,-7.0699,-7.0693,-7.0749,-7.0755,-7.0775,-7.0895,-7.0897,-7.0774,-7.0778,-7.0781,-7.0783,0,0,0,0,0,0,0,-7.0636,-7.0648,-7.078,-7.0724,-7.0721,-7.0694,-7.0698,-7.0776,-7.0757,-7.0711,-7.0704,-7.0711,-7.0747,-7.0769,-7.0775,-7.0898,-7.0774,-7.078,-7.0784,-7.0786,-7.1132,-7.1137,0,0,0,0,0,0,-7.0637,-7.0645,-7.0779,-7.0782,-7.0666,-7.0701,-7.0706,-7.0743,-7.0756,-7.0754,-7.0715,-7.0706,-7.076,-7.0768,-7.0776,-7.0938,-7.0781,-7.0787,-7.0791,-7.1127,-7.1133,-7.1139,0,0,0,0,0,0,-7.0634,-7.065,-7.0777,-7.0711,-7.0726,-7.071,-7.0752,-7.0746,-7.0768,-7.076,-7.0755,-7.0741,-7.0757,-7.0767,-7.0864,-7.0939,-7.079,-7.0796,-7.1121,-7.1129,-7.1136,-7.1265,0,0,0,0,0,0,-7.0629,-7.065,-7.0703,-7.0714,-7.0729,-7.0866,-7.0757,-7.0751,-7.078,-7.0769,-7.0783,-7.0781,-7.0754,-7.0855,-7.0871,-7.0945,-7.0801,-7.1114,-7.1124,-7.1134,-7.1254,-7.1276,-7.1295,0,0,0,0,0,-7.0623,-7.0737,-7.0707,-7.0723,-7.0797,-7.087,-7.0879,-7.0847,-7.0787,-7.084,-7.0834,-7.078,-7.0928,-7.0866,-7.0883,-7.096,-7.1109,-7.1121,-7.1133,-7.1245,-7.1272,-7.1295,0,0,0,0,0,0,-7.0735,-7.0738,-7.0704,-7.0826,-7.0849,-7.0853,-7.0919,-7.0877,-7.0917,-7.0904,-7.0861,-7.0865,-7.0971,-7.0975,-7.0906,-7.1094,-7.1008,-7.1024,-7.1087,-7.1113,-7.1134,-7.113,-7.0806,0,0,0,0,0,-7.0775,-7.0836,-7.0834,-7.0941,-7.0955,-7.0935,-7.0966,-7.0939,-7.0961,-7.097,-7.0971,-7.0993,-7.1044,-7.1079,-7.1126,-7.1254,-7.1255,-7.1315,-7.1336,-7.1353,-7.1367,-7.1433,-7.146,-7.1178,-7.1178,-7.1178,0,0,-7.0856,-7.0865,-7.0906,-7.0964,-7.0979,-7.1042,-7.0944,-7.1015,-7.106,-7.098,-7.1072,-7.1074,-7.1095,-7.1209,-7.1258,-7.1215,-7.1445,-7.1368,-7.1382,-7.1386,-7.1448,-7.1475,-7.1499,-7.1186,-7.1185,-7.1184,0,0,-7.1036,-7.105,-7.114,-7.1157,-7.118,-7.1166,-7.1188,-7.1199,-7.1197,-7.1289,-7.123,-7.1282,-7.1372,-7.1389,-7.141,-7.1596,-7.1547,-7.1612,-7.172,-7.1786,-7.1808,-7.1827,-7.1892,-7.1916,-7.1626,-7.1626,-7.1627,0,-7.1133,-7.1227,-7.1191,-7.1266,-7.1293,-7.1224,-7.1314,-7.1331,-7.1369,-7.1388,-7.1339,-7.145,-7.1459,-7.1575,-7.162,-7.164,-7.1662,-7.161,-7.1808,-7.1827,-7.1844,-7.1906,-7.1931,-7.1634,-7.1633,-7.1632,-7.1632,0,-7.1345,-7.1411,-7.1481,-7.152,-7.1554,-7.1636,-7.1611,-7.165,-7.162,-7.1611,-7.1704,-7.1713,-7.176,-7.1785,-7.1756,-7.1897,-7.1869,-7.1815,-7.1728,-7.1879,-7.1936,-7.196,-7.1645,-7.1642,-7.164,-7.1638,0,0,-7.1598,-7.1616,-7.1642,-7.1658,-7.1679,-7.1728,-7.1806,-7.1853,-7.1886,-7.1914,-7.1977,-7.2054,-7.2004,-7.2028,-7.2,-7.2057,-7.2202,-7.1996,-7.1995,-7.2033,-7.2356,-7.2396,-7.2424,-7.217,-7.2175,-7.2178,-7.2354,0,-7.1776,-7.1912,-7.1881,-7.2014,-7.2073,-7.2008,-7.2075,-7.2095,-7.2088,-7.2136,-7.2127,-7.2182,-7.2113,-7.2126,-7.218,-7.2173,-7.2266,-7.216,-7.2228,-7.2231,-7.2224,-7.2454,-7.2497,-7.2662,-7.2376,-7.238,-7.2382,0,-7.2001,-7.2038,-7.2178,-7.2188,-7.2211,-7.2273,-7.2313,-7.236,-7.2379,-7.237,-7.2396,-7.2357,-7.2432,-7.2345,-7.2448,-7.2376,-7.2402,-7.2402,-7.2408,-7.2412,-7.2315,-7.2464,-7.2714,-7.2739,-7.2417,-7.2415,-7.2412,0,-7.2171,-7.2255,-7.2349,-7.2365,-7.238,-7.2424,-7.2432,-7.2447,-7.2476,-7.251,-7.2529,-7.2571,-7.2594,-7.2627,-7.2599,-7.2538,-7.2706,-7.2616,-7.2699,-7.27,-7.2737,-7.2735,-7.2994,-7.2755,-7.2755,-7.2754,-7.2754,0,-7.2372,-7.246,-7.2426,-7.2484,-7.2579,-7.2542,-7.2637,-7.2637,-7.2651,-7.2706,-7.2652,-7.2704,-7.2665,-7.2714,-7.2693,-7.278,-7.2791,-7.2785,-7.2778,-7.2789,-7.279,-7.2805,-7.2793,-7.2761,-7.2759,-7.2758,-7.2757,0,-7.2577,-7.2559,-7.2656,-7.2662,-7.2665,-7.2735,-7.2739,-7.2791,-7.278,-7.2851,-7.2865,-7.2848,-7.2902,-7.2878,-7.2935,-7.2921,-7.3033,-7.3011,-7.3027,-7.3021,-7.3105,-7.3097,-7.3382,-7.3417,-7.3156,-7.3159,-7.3161,0,-7.2707,-7.2773,-7.2785,-7.2819,-7.2831,-7.2886,-7.2916,-7.2881,-7.2914,-7.2941,-7.299,-7.304,-7.3079,-7.3169,-7.316,-7.3203,-7.3182,-7.3279,-7.3188,-7.3197,-7.3182,-7.3178,-7.3184,-7.3297,-7.33,-7.3302,-7.3304,0,-7.2939,-7.2926,-7.2972,-7.3014,-7.3052,-7.3083,-7.311,-7.314,-7.3106,-7.3146,-7.3202,-7.3232,-7.329,-7.334,-7.3378,-7.3384,-7.3339,-7.3333,-7.3354,-7.3366,-7.3373,-7.3369,-7.3076,-7.3327,-7.3324,-7.3323,-7.3322,-7.3321,-7.3109,-7.3165,-7.3182,-7.3234,-7.3251,-7.3276,-7.3326,-7.3321,-7.3367,-7.3413,-7.3389,-7.3454,-7.347,-7.3516,-7.3528,-7.3577,-7.3539,-7.357,-7.3577,-7.3586,-7.3596,-7.3365,-7.3584,-7.3583,-7.3583,-7.3582,-7.3581,0,-7.3338,-7.3345,-7.3394,-7.3433,-7.3474,-7.3428,-7.3455,-7.3492,-7.355,-7.3569,-7.3608,-7.3671,-7.3719,-7.3714,-7.3758,-7.3798,-7.3778,-7.381,-7.3807,-7.3808,-7.3629,-7.3606,-7.3825,-7.3825,-7.3825,-7.3825,-7.3825,-7.3825,-7.3461,-7.3551,-7.354,-7.3638,-7.3644,-7.3708,-7.3727,-7.375,-7.3765,-7.3838,-7.3878,-7.3875,-7.3884,-7.3927,-7.3969,-7.3966,-7.3984,-7.4024,-7.4013,-7.3845,-7.3821,-7.3798,-7.3776,-7.4028,-7.4029,-7.4189,-7.419,-7.4192]}]]